User: anonymous   Login
Location: Unspecified
(0.0000°N, 0.0000°E)
Time: 04:31:33
(UTC+00:00)
Language:

CBERS-4 - Orbit

View from above orbital plane
View from above orbital plane
View from above satellite
View from above satellite

Ground track
Ground track

The orbit data is extracted from the following two-line orbital elements,

1 40336U 14079A   18292.87607853  .00000006  00000-0  16930-4 0  9992
2 40336  98.4023   1.3318 0001440  70.5560 289.5769 14.35488004202661
Epoch (UTC): 19 October 2018 21:01:33
Eccentricity: 0.0001440
inclination: 98.4023°
perigee height: 772 km
apogee height: 774 km
right ascension of ascending node: 1.3318°
argument of perigee: 70.5560°
revolutions per day: 14.35488004
mean anomaly at epoch: 289.5769°
orbit number at epoch: 20266

The dashed part of the orbit path shows where the satellite is in the earth's shadow,  

DLR